Simultaneous Nadir Overpasses (SNOs) Predictions

Prediction of SNOs between AQUA and METOP-B Satellite Orbit:

Table of predicted SNOs for the next 14.0 days since TLE Epoch: 8/30/2014
Index Date (AQUA) Time (AQUA) Lat,Lon (AQUA) SZA (AQUA ) Date (METOP-B) Time (METOP-B) Lat,Lon (METOP-B) SZA (METOP-B ) Distance(km) Time Diff (sec)
1 08/30/2014 04:42:05 -73.73, -76.04 115.31 08/30/2014 04:40:56 -73.75, -76.11 115.28 3.00 69
2 08/30/2014 05:31:34 73.79, 91.45 64.77 08/30/2014 05:31:34 73.81, 91.38 64.79 2.93 0
3 08/30/2014 06:21:01 -73.88,-101.09 115.13 08/30/2014 06:22:15 -73.87,-101.15 115.14 1.83 74
4 09/02/2014 00:16:21 -73.74, -9.63 114.30 09/02/2014 00:15:16 -73.76, -9.67 114.26 2.91 65
5 09/02/2014 01:05:50 73.81, 157.85 65.80 09/02/2014 01:05:54 73.82, 157.82 65.82 2.25 4
6 09/02/2014 01:55:20 -74.04, -35.03 113.95 09/02/2014 01:56:32 -74.03, -34.35 113.98 20.77 72
7 09/04/2014 19:50:38 -73.77, 56.73 113.23 09/04/2014 19:49:37 -73.77, 56.75 113.23 0.93 61
8 09/04/2014 20:40:07 73.84,-135.80 66.86 09/04/2014 20:40:15 73.83,-135.76 66.85 1.94 8
9 09/04/2014 21:29:40 -74.23, 30.97 112.72 09/04/2014 21:30:49 -74.24, 32.56 112.76 48.33 69
10 09/07/2014 15:24:54 -73.78, 123.14 112.18 09/07/2014 15:23:58 -73.77, 123.17 112.18 1.06 56
11 09/07/2014 16:14:23 73.86, -69.40 67.92 09/07/2014 16:14:36 73.84, -69.34 67.90 2.71 13
12 09/07/2014 17:03:59 -74.39, 97.02 111.50 09/07/2014 17:05:07 -74.39, 99.36 111.57 70.03 68
13 09/10/2014 10:59:08 -73.76,-170.38 111.15 09/10/2014 10:58:18 -73.77,-170.42 111.13 2.04 50
14 09/10/2014 11:48:37 73.84, -2.93 68.96 09/10/2014 11:48:56 73.84, -2.93 68.95 0.19 19




NCC Satellite Simultaneous Nadir Overpasses (SNOs) Prediction Service
